Ionia, MI

2:49 AM EST on December 14, 2019 (GMT -0500)
Ionia

Weather History for KY70 - November, 2019

Change the Weather History Date:

Thursday, November 14, 2019

  Actual Average (WUND) Record (WUND)
Temperature  
Mean Temperature 28 °F -  
Max Temperature 32 °F - - (-1)
Min Temperature 24 °F - - (-1)
Degree Days  
Heating Degree Days 37    
Moisture  
Dew Point 24 °F    
Average Humidity 83    
Maximum Humidity 94    
Minimum Humidity 70    
Precipitation  
Precipitation 0.00 in - - ()
Sea Level Pressure  
Sea Level Pressure 30.14 in    
Wind  
Wind Speed 7 mph ()    
Max Wind Speed 21 mph    
Max Gust Speed 25 mph    
Visibility 7.1 miles    
Events Snow    
Averages and records for this station are not official NWS values.
T = Trace of Precipitation, MM = Missing Value Source: Averaged Metar Reports

Daily Weather History Graph

Daily Weather History Graph

Search for Another Location

Airport or City:

Astronomy

Nov. 14, 2019 Rise Set
Actual Time 7:30 AM EST 5:17 PM EST
Civil Twilight 7:00 AM EST 5:48 PM EST
Nautical Twilight 6:26 AM EST 6:22 PM EST
Astronomical Twilight 5:52 AM EST 6:55 PM EST
Moon 7:01 PM EST 9:27 AM EST
Length of Visible Light 10h 47m
Length of Day
9h 46m
Waning Gibbous, 95% of the Moon is Illuminated
Nov 14
Waning Gibbous
Nov 19
Last Quarter
Nov 26
New
Dec 4
First Quarter
Dec 12
Full

Hourly Weather History & Observations

Time (EST) Temp. Windchill Dew Point Humidity Pressure Visibility Wind Dir Wind Speed Gust Speed Precip Events Conditions
12:15 AM 25.3 °F 17.6 °F 16.7 °F 70% 30.06 in 7.0 mi SSW 6.9 mph - N/A Snow Light Snow
12:16 AM 25.3 °F 16.7 °F 16.7 °F 70% 30.06 in 7.0 mi SSW 8.1 mph - N/A Snow Light Snow
12:35 AM 24.8 °F 16.1 °F 18.1 °F 76% 30.06 in 7.0 mi SSW 8.1 mph - N/A Snow Light Snow
12:55 AM 24.8 °F 16.1 °F 18.3 °F 76% 30.05 in 7.0 mi SSW 8.1 mph - N/A Snow Light Snow
1:15 AM 25.0 °F 17.1 °F 18.5 °F 76% 30.05 in 10.0 mi SSW 6.9 mph - N/A   Overcast
1:35 AM 25.5 °F 18.7 °F 18.5 °F 75% 30.05 in 10.0 mi SSW 5.8 mph - N/A   Overcast
1:55 AM 25.7 °F 17.1 °F 18.5 °F 74% 30.05 in 10.0 mi SSW 8.1 mph - N/A   Overcast
2:15 AM 26.2 °F 17.8 °F 18.9 °F 74% 30.05 in 10.0 mi SSW 8.1 mph - N/A   Overcast
2:16 AM 26.2 °F 17.1 °F 18.9 °F 74% 30.05 in 10.0 mi SSW 9.2 mph - N/A   Overcast
2:35 AM 26.2 °F 17.1 °F 19.2 °F 75% 30.05 in 10.0 mi SSW 9.2 mph - N/A   Overcast
2:55 AM 26.4 °F 18.9 °F 19.0 °F 74% 30.05 in 10.0 mi SSW 6.9 mph - N/A   Overcast
3:15 AM 26.4 °F 19.8 °F 19.4 °F 75% 30.05 in 10.0 mi SSW 5.8 mph - N/A Snow Light Snow
3:16 AM 26.6 °F 20.0 °F 19.4 °F 74% 30.05 in 10.0 mi SSW 5.8 mph - N/A Snow Light Snow
3:35 AM 26.4 °F 20.9 °F 19.9 °F 77% 30.06 in 5.0 mi SSW 4.6 mph - N/A Snow Light Snow
3:55 AM 26.4 °F 19.8 °F 20.3 °F 78% 30.06 in 5.0 mi SSW 5.8 mph - N/A Snow Light Snow
4:15 AM 26.4 °F 20.9 °F 20.7 °F 79% 30.06 in 10.0 mi SSW 4.6 mph - N/A   Overcast
4:35 AM 26.6 °F 20.0 °F 21.0 °F 79% 30.06 in 10.0 mi SSW 5.8 mph - N/A Snow Light Snow
4:36 AM 26.6 °F 20.0 °F 21.0 °F 79% 30.06 in 10.0 mi SSW 5.8 mph - N/A Snow Light Snow
4:55 AM 26.8 °F 19.3 °F 21.2 °F 79% 30.07 in 10.0 mi South 6.9 mph - N/A   Overcast
4:56 AM 26.8 °F 19.3 °F 21.2 °F 79% 30.07 in 10.0 mi South 6.9 mph - N/A   Overcast
5:15 AM 27.0 °F 20.5 °F 21.9 °F 81% 30.07 in 10.0 mi SSW 5.8 mph - N/A   Overcast
5:35 AM 27.1 °F 20.7 °F 21.9 °F 81% 30.07 in 10.0 mi SSW 5.8 mph - N/A Snow Light Snow
5:36 AM 27.1 °F 20.7 °F 21.9 °F 81% 30.07 in 10.0 mi SSW 5.8 mph - N/A Snow Light Snow
5:55 AM 27.1 °F 20.7 °F 22.8 °F 84% 30.08 in 2.5 mi SSW 5.8 mph - N/A Snow Light Snow
5:56 AM 27.1 °F 21.8 °F 22.8 °F 84% 30.08 in 2.5 mi SSW 4.6 mph - N/A Snow Light Snow
6:15 AM 26.6 °F 21.2 °F 23.7 °F 89% 30.08 in 2.0 mi SSW 4.6 mph - N/A Snow Light Snow
6:35 AM 27.0 °F 23.0 °F 24.4 °F 90% 30.09 in 4.0 mi SSW 3.5 mph - N/A Snow Light Snow
6:36 AM 27.0 °F 21.6 °F 24.4 °F 90% 30.09 in 4.0 mi SSW 4.6 mph - N/A Snow Light Snow
6:55 AM 27.1 °F 21.8 °F 24.4 °F 90% 30.09 in 7.0 mi SSW 4.6 mph - N/A   Overcast
6:56 AM 27.1 °F 20.7 °F 24.4 °F 90% 30.09 in 10.0 mi SSW 5.8 mph - N/A   Overcast
7:15 AM 27.3 °F 19.9 °F 23.9 °F 87% 30.10 in 10.0 mi SW 6.9 mph - N/A   Overcast
7:16 AM 27.3 °F 20.9 °F 23.9 °F 87% 30.10 in 10.0 mi SW 5.8 mph - N/A   Overcast
7:55 AM 27.5 °F 22.2 °F 24.6 °F 89% 30.12 in 5.0 mi WSW 4.6 mph - N/A   Overcast
7:56 AM 27.5 °F 22.2 °F 24.4 °F 88% 30.12 in 5.0 mi WSW 4.6 mph - N/A   Overcast
8:15 AM 27.5 °F - 24.8 °F 90% 30.13 in 2.5 mi Calm Calm - N/A   Overcast
8:35 AM 27.5 °F - 25.5 °F 92% 30.13 in 2.0 mi Calm Calm - N/A   Overcast
8:55 AM 28.0 °F - 25.9 °F 92% 30.14 in 1.8 mi Calm Calm - N/A   Overcast
8:56 AM 27.9 °F - 25.9 °F 92% 30.14 in 1.8 mi Calm Calm - N/A   Overcast
9:15 AM 27.9 °F - 26.1 °F 93% 30.15 in 1.2 mi Calm Calm - N/A   Overcast
9:16 AM 27.9 °F - 26.1 °F 93% 30.15 in 1.2 mi Calm Calm - N/A   Overcast
9:35 AM 28.0 °F 24.2 °F 26.4 °F 94% 30.15 in 1.2 mi SW 3.5 mph - N/A   Overcast
9:36 AM 28.0 °F - 26.4 °F 94% 30.15 in 1.2 mi Calm Calm - N/A   Overcast
9:55 AM 28.4 °F 23.3 °F 26.6 °F 93% 30.16 in 1.5 mi WSW 4.6 mph - N/A   Overcast
10:15 AM 28.8 °F 25.0 °F 27.1 °F 94% 30.16 in 1.5 mi West 3.5 mph - N/A   Overcast
10:16 AM 28.8 °F 25.0 °F 27.1 °F 94% 30.16 in 1.5 mi West 3.5 mph - N/A   Overcast
10:35 AM 28.8 °F 23.7 °F 27.0 °F 93% 30.17 in 2.0 mi West 4.6 mph - N/A   Overcast
10:55 AM 28.9 °F 22.8 °F 27.1 °F 93% 30.17 in 2.0 mi WSW 5.8 mph - N/A   Overcast
10:56 AM 28.9 °F 22.8 °F 27.1 °F 93% 30.17 in 2.0 mi WSW 5.8 mph - N/A   Overcast
11:15 AM 29.3 °F 24.3 °F 27.5 °F 93% 30.17 in 2.5 mi WSW 4.6 mph - N/A   Overcast
11:35 AM 29.7 °F 26.1 °F 27.5 °F 92% 30.17 in 2.5 mi WSW 3.5 mph - N/A   Overcast
11:55 AM 29.7 °F 24.7 °F 27.5 °F 92% 30.17 in 2.5 mi WSW 4.6 mph - N/A   Overcast
12:15 PM 30.0 °F 25.2 °F 27.7 °F 91% 30.17 in 3.0 mi WSW 4.6 mph - N/A   Overcast
12:35 PM 30.2 °F 25.4 °F 27.9 °F 91% 30.16 in 3.0 mi WSW 4.6 mph - N/A   Overcast
12:36 PM 30.2 °F 25.4 °F 27.9 °F 91% 30.16 in 3.0 mi WSW 4.6 mph - N/A   Overcast
12:55 PM 30.2 °F 25.4 °F 27.5 °F 90% 30.16 in 4.0 mi WSW 4.6 mph - N/A   Overcast
12:56 PM 30.2 °F 25.4 °F 27.5 °F 90% 30.16 in 4.0 mi WSW 4.6 mph - N/A   Overcast
1:15 PM 30.6 °F 25.8 °F 27.9 °F 90% 30.16 in 5.0 mi WSW 4.6 mph - N/A   Overcast
1:16 PM 30.6 °F 25.8 °F 27.9 °F 90% 30.16 in 5.0 mi WSW 4.6 mph - N/A   Overcast
1:35 PM 30.7 °F 24.9 °F 27.9 °F 89% 30.16 in 5.0 mi SW 5.8 mph - N/A   Overcast
1:36 PM 30.6 °F 24.7 °F 27.9 °F 90% 30.16 in 5.0 mi SW 5.8 mph - N/A   Overcast
1:55 PM 30.7 °F 26.0 °F 28.0 °F 90% 30.16 in 5.0 mi SW 4.6 mph - N/A   Overcast
1:56 PM 30.7 °F 24.9 °F 28.0 °F 90% 30.16 in 7.0 mi WSW 5.8 mph - N/A   Overcast
2:15 PM 31.1 °F 26.4 °F 28.2 °F 89% 30.16 in 7.0 mi WSW 4.6 mph - N/A   Overcast
2:35 PM 31.1 °F 27.7 °F 28.4 °F 90% 30.15 in 7.0 mi WSW 3.5 mph - N/A   Overcast
2:55 PM 31.5 °F 24.9 °F 28.4 °F 88% 30.15 in 7.0 mi WSW 6.9 mph - N/A   Overcast
3:15 PM 31.6 °F 26.0 °F 28.4 °F 88% 30.15 in 10.0 mi WSW 5.8 mph - N/A   Overcast
3:35 PM 31.5 °F 25.8 °F 28.2 °F 88% 30.15 in 7.0 mi WSW 5.8 mph - N/A   Overcast
3:55 PM 31.5 °F 24.9 °F 28.4 °F 88% 30.16 in 10.0 mi SW 6.9 mph - N/A   Overcast
3:56 PM 31.6 °F 25.1 °F 28.4 °F 88% 30.16 in 10.0 mi SW 6.9 mph - N/A   Overcast
4:15 PM 31.8 °F 27.3 °F 28.4 °F 87% 30.17 in 7.0 mi WSW 4.6 mph - N/A   Overcast
4:16 PM 31.8 °F 26.2 °F 28.4 °F 87% 30.17 in 7.0 mi WSW 5.8 mph - N/A   Overcast
4:55 PM 31.6 °F 25.1 °F 28.2 °F 87% 30.17 in 10.0 mi WSW 6.9 mph - N/A   Overcast
4:56 PM 31.8 °F 25.4 °F 28.2 °F 87% 30.17 in 10.0 mi WSW 6.9 mph - N/A   Overcast
5:15 PM 31.6 °F 25.1 °F 28.2 °F 87% 30.17 in 10.0 mi SW 6.9 mph - N/A   Overcast
5:35 PM 31.6 °F 24.4 °F 27.9 °F 86% 30.18 in 10.0 mi WSW 8.1 mph - N/A   Overcast
5:55 PM 31.8 °F 22.8 °F 27.3 °F 83% 30.18 in 10.0 mi WSW 11.5 mph - N/A   Overcast
6:15 PM 32.0 °F 23.0 °F 25.3 °F 76% 30.18 in 10.0 mi WSW 11.5 mph - N/A   Overcast
6:16 PM 32.0 °F 23.0 °F 25.2 °F 76% 30.18 in 10.0 mi WSW 11.5 mph - N/A   Overcast
6:35 PM 32.0 °F 22.5 °F 23.9 °F 72% 30.19 in 10.0 mi WSW 12.7 mph - N/A   Overcast
6:55 PM 32.0 °F 24.2 °F 23.7 °F 71% 30.20 in 10.0 mi WSW 9.2 mph - N/A   Overcast
7:15 PM 32.0 °F 24.2 °F 23.9 °F 72% 30.20 in 10.0 mi WSW 9.2 mph - N/A   Overcast
7:35 PM 32.0 °F 22.5 °F 24.3 °F 73% 30.19 in 10.0 mi WSW 12.7 mph 16.1 mph N/A   Overcast
7:55 PM 32.0 °F 22.1 °F 24.6 °F 74% 30.20 in 10.0 mi WSW 13.8 mph - N/A   Overcast
7:56 PM 32.0 °F 23.0 °F 24.6 °F 74% 30.20 in 10.0 mi WSW 11.5 mph - N/A   Overcast
8:15 PM 32.0 °F 22.1 °F 24.4 °F 74% 30.20 in 10.0 mi WSW 13.8 mph - N/A   Overcast
8:16 PM 32.0 °F 22.1 °F 24.4 °F 74% 30.20 in 10.0 mi WSW 13.8 mph - N/A   Overcast
8:35 PM 32.0 °F 22.1 °F 24.4 °F 74% 30.20 in 10.0 mi WSW 13.8 mph 20.7 mph N/A   Overcast
8:55 PM 32.0 °F 21.2 °F 24.3 °F 73% 30.20 in 10.0 mi WSW 16.1 mph 20.7 mph N/A   Overcast
8:56 PM 32.0 °F 21.6 °F 24.1 °F 73% 30.20 in 10.0 mi WSW 15.0 mph 20.7 mph N/A   Overcast
9:15 PM 31.6 °F 20.0 °F 23.5 °F 72% 30.20 in 10.0 mi WSW 18.4 mph 23.0 mph N/A   Overcast
9:16 PM 31.6 °F 20.7 °F 23.5 °F 72% 30.20 in 10.0 mi WSW 16.1 mph 23.0 mph N/A   Overcast
9:35 PM 31.5 °F 20.5 °F 23.5 °F 73% 30.20 in 10.0 mi WSW 16.1 mph 23.0 mph N/A   Overcast
9:55 PM 31.5 °F 21.8 °F 23.9 °F 74% 30.20 in 10.0 mi WSW 12.7 mph 23.0 mph N/A   Overcast
10:15 PM 31.5 °F 19.8 °F 23.9 °F 74% 30.20 in 10.0 mi WSW 18.4 mph - N/A   Overcast
10:35 PM 31.6 °F 21.6 °F 23.9 °F 73% 30.20 in 10.0 mi WSW 13.8 mph 18.4 mph N/A   Overcast
10:55 PM 31.5 °F 20.9 °F 24.3 °F 75% 30.20 in 10.0 mi WSW 15.0 mph 21.9 mph N/A   Overcast
10:56 PM 31.5 °F 20.9 °F 24.3 °F 75% 30.20 in 10.0 mi WSW 15.0 mph 21.9 mph N/A   Overcast
11:15 PM 31.5 °F 21.4 °F 24.1 °F 74% 30.20 in 10.0 mi WSW 13.8 mph 21.9 mph N/A   Overcast
11:35 PM 31.5 °F 20.9 °F 24.4 °F 75% 30.21 in 10.0 mi WSW 15.0 mph - N/A   Overcast
11:36 PM 31.5 °F 21.4 °F 24.4 °F 75% 30.21 in 10.0 mi West 13.8 mph - N/A   Overcast
11:55 PM 31.6 °F 19.3 °F 24.6 °F 75% 30.20 in 10.0 mi WSW 20.7 mph 25.3 mph N/A   Overcast